Morgantown, WV

12:48 AM EDT on April 24, 2017 (GMT -0400)
Morgantown Municipal-Hart

Weather History for KMGW - March, 2012

Change the Weather History Date:

Friday, March 16, 2012

  Actual Average Record
Temperature  
Mean Temperature 65 °F 42 °F  
Max Temperature 73 °F 52 °F 75 °F (1990)
Min Temperature 57 °F 32 °F 12 °F (1992)
Degree Days  
Heating Degree Days 0 23  
Month to date heating degree days 259 407  
Since 1 July heating degree days 3567 4296  
Cooling Degree Days 0 0  
Month to date cooling degree days 0 0  
Year to date cooling degree days 0 0  
Growing Degree Days 14 (Base 50)    
Moisture  
Dew Point 52 °F    
Average Humidity 64    
Maximum Humidity 78    
Minimum Humidity 49    
Precipitation  
Precipitation 0.02 in 0.13 in 1.03 in (2002)
Month to date precipitation 1.11 1.81  
Year to date precipitation 6.34 7.22  
Sea Level Pressure  
Sea Level Pressure 30.17 in    
Wind  
Wind Speed 3 mph (SW)    
Max Wind Speed 9 mph    
Max Gust Speed 15 mph    
Visibility 10 miles    
Events Rain    
T = Trace of Precipitation, MM = Missing Value Source: NWS Daily Summary

Daily Weather History Graph

Daily Weather History Graph

Search for Another Location

Airport or City:

Trip Planner

Search our weather history database for the weather conditions in past years. The results will help you decide how hot, cold, wet, or windy it might be!

Date:

Astronomy

Mar. 16, 2012 Rise Set
Actual Time 7:28 AM EDT 7:28 PM EDT
Civil Twilight 7:01 AM EDT 7:54 PM EDT
Nautical Twilight 6:30 AM EDT 8:26 PM EDT
Astronomical Twilight 5:58 AM EDT 8:58 PM EDT
Moon 3:44 AM EDT (3/16) 1:47 PM EDT (3/16)
Length of Visible Light 12h 53m
Length of Day
11h 59m
Waning Crescent, 33% of the Moon is Illuminated
Mar 16
Waning Crescent
Mar 22
New
Mar 30
First Quarter
Apr 6
Full
Apr 13
Last Quarter

Hourly Weather History & Observations

Time (EDT) Temp. Dew Point Humidity Pressure Visibility Wind Dir Wind Speed Gust Speed Precip Events Conditions
12:53 AM 62.1 °F 48.0 °F 60% 30.15 in 10.0 mi Calm Calm - N/A   Mostly Cloudy
1:53 AM 62.1 °F 48.0 °F 60% 30.15 in 10.0 mi SSW 6.9 mph - N/A   Scattered Clouds
2:53 AM 62.1 °F 48.9 °F 62% 30.14 in 10.0 mi SSW 8.1 mph - N/A   Overcast
3:53 AM 61.0 °F 50.0 °F 67% 30.15 in 10.0 mi WSW 4.6 mph - N/A   Overcast
4:09 AM 60.8 °F 50.0 °F 68% 30.18 in 10.0 mi Calm Calm - N/A   Overcast
4:32 AM 60.8 °F 50.0 °F 68% 30.17 in 10.0 mi South 5.8 mph - 0.00 in Rain Light Rain
4:53 AM 60.1 °F 51.1 °F 72% 30.16 in 10.0 mi South 6.9 mph - 0.00 in   Overcast
5:53 AM 57.0 °F 52.0 °F 83% 30.17 in 10.0 mi South 3.5 mph - 0.01 in Rain Light Rain
6:22 AM 57.2 °F 51.8 °F 82% 30.19 in 10.0 mi SSW 6.9 mph - 0.00 in   Overcast
6:37 AM 57.2 °F 51.8 °F 82% 30.18 in 10.0 mi Variable 3.5 mph - 0.00 in   Scattered Clouds
6:53 AM 57.9 °F 52.0 °F 81% 30.17 in 10.0 mi SSW 4.6 mph - 0.00 in   Scattered Clouds
7:53 AM 57.0 °F 53.1 °F 87% 30.17 in 9.0 mi Variable 4.6 mph - 0.01 in Rain Light Rain
8:53 AM 57.9 °F 53.1 °F 84% 30.17 in 10.0 mi SSW 6.9 mph - 0.00 in   Partly Cloudy
9:53 AM 59.0 °F 52.0 °F 78% 30.15 in 10.0 mi South 4.6 mph - N/A   Overcast
10:53 AM 61.0 °F 53.1 °F 75% 30.17 in 10.0 mi Calm Calm - N/A   Overcast
11:53 AM 64.0 °F 54.0 °F 70% 30.18 in 10.0 mi Variable 3.5 mph - N/A   Scattered Clouds
12:24 PM 64.4 °F 53.6 °F 68% 30.20 in 10.0 mi West 6.9 mph - N/A   Mostly Cloudy
12:53 PM 64.9 °F 53.1 °F 65% 30.19 in 10.0 mi Variable 3.5 mph - N/A   Overcast
1:33 PM 66.2 °F 53.6 °F 64% 30.18 in 10.0 mi West 4.6 mph - N/A   Scattered Clouds
1:44 PM 66.2 °F 53.6 °F 64% 30.18 in 10.0 mi Variable 3.5 mph - N/A   Mostly Cloudy
1:53 PM 66.9 °F 53.1 °F 61% 30.17 in 10.0 mi WSW 3.5 mph - N/A   Mostly Cloudy
2:17 PM 69.8 °F 53.6 °F 56% 30.17 in 10.0 mi Variable 5.8 mph - N/A   Scattered Clouds
2:53 PM 68.0 °F 53.1 °F 59% 30.15 in 10.0 mi Calm Calm - N/A   Scattered Clouds
3:53 PM 70.0 °F 52.0 °F 53% 30.14 in 10.0 mi Variable 3.5 mph - N/A   Clear
4:53 PM 71.1 °F 51.1 °F 49% 30.13 in 10.0 mi Calm Calm - N/A   Scattered Clouds
5:53 PM 72.0 °F 52.0 °F 49% 30.14 in 10.0 mi NW 5.8 mph - N/A   Overcast
6:53 PM 71.1 °F 52.0 °F 51% 30.15 in 10.0 mi Calm Calm - N/A   Overcast
7:53 PM 68.0 °F 51.1 °F 55% 30.16 in 10.0 mi North 3.5 mph - N/A   Scattered Clouds
8:53 PM 66.0 °F 51.1 °F 59% 30.18 in 10.0 mi Calm Calm - N/A   Clear
9:53 PM 63.0 °F 51.1 °F 65% 30.20 in 10.0 mi Calm Calm - N/A   Clear
10:53 PM 63.0 °F 52.0 °F 67% 30.19 in 10.0 mi Calm Calm - N/A   Clear
11:53 PM 59.0 °F 51.1 °F 75% 30.20 in 10.0 mi SSW 3.5 mph - N/A   Clear